Wind_Speed
6 5 4 3 3 3 4 5 6 6 6 6 5 6 6 6 5 6 6 6 6 6 6 7 7 7 7 7 6 6 6 5 5 5 5 5 5 5 6 6 7 7 7 7 7 7 8 8 9
5 5 4 4 3 4 4 5 5 5 5 6 6 6 6 6 5 6 6 6 6 6 6 6 7 7 7 7 7 6 6 6 5 6 6 6 6 6 6 7 7 7 8 8 8 8 8 8 8
5 5 5 4 4 5 6 6 6 6 6 6 6 6 6 6 5 6 5 6 6 6 6 7 7 8 8 8 7 7 7 7 7 7 7 6 6 6 7 7 8 8 8 8 7 7 8 7 7
5 5 5 5 5 5 6 6 6 6 6 6 6 6 6 6 6 6 6 6 6 6 6 7 8 8 9 8 8 8 8 8 8 8 8 7 7 7 7 7 8 8 8 8 7 7 8 6 5
6 6 6 6 6 5 5 6 6 6 6 6 7 7 7 7 7 6 7 7 7 7 7 8 8 9 9 9 9 9 9 9 9 9 9 9 8 8 8 7 7 8 8 9 9 9 9 7 6
6 7 7 6 6 6 6 6 6 7 8 7 7 7 8 7 8 7 7 7 7 7 8 8 9 10 9 9 9 9 9 9 10 10 10 10 9 9 8 8 8 8 8 9 9 9 9 9 8
6 7 7 7 7 7 7 7 7 7 7 8 8 8 9 9 9 8 7 7 7 7 7 8 8 9 9 9 9 10 10 10 10 10 10 10 9 9 9 9 10 9 9 9 10 9 10 10 9
7 7 7 7 8 8 8 7 8 8 8 8 8 8 9 9 9 8 7 7 8 8 8 7 7 8 8 9 9 10 9 10 10 10 10 9 10 10 11 11 11 11 11 11 11 10 11 11 11
7 7 7 8 8 8 9 9 9 9 9 9 9 9 9 9 8 8 8 8 8 8 8 8 8 9 9 10 10 9 9 9 9 10 10 11 11 12 12 13 12 12 13 12 11 11 11 11 11
7 8 8 9 9 10 10 10 9 9 10 11 10 10 10 9 9 9 8 8 9 9 9 9 9 9 9 10 10 10 10 10 11 11 11 12 12 13 13 13 13 14 14 13 12 12 12 12 11
8 8 8 9 10 10 11 11 11 11 11 11 11 10 10 9 9 9 9 9 9 9 9 9 10 10 10 10 10 11 11 11 11 11 11 12 13 13 13 14 14 14 13 13 13 13 13 12 12
8 8 8 9 10 10 11 11 11 11 11 11 10 10 10 10 9 10 10 10 10 10 10 11 11 11 11 11 11 11 12 12 12 11 11 12 12 13 13 14 15 14 14 14 14 14 14 13 13
8 8 8 8 9 10 11 11 10 11 11 11 10 10 10 10 10 10 10 11 11 11 11 11 11 11 12 12 12 12 12 12 12 12 12 12 12 12 13 14 15 15 15 15 14 14 14 14 14
7 8 7 7 8 9 10 10 10 10 11 11 11 11 11 11 10 11 11 11 11 12 12 12 12 12 13 13 13 12 12 12 13 12 12 12 12 12 13 13 14 14 14 14 14 14 15 15 15
7 7 7 7 7 8 8 9 10 10 10 11 11 11 11 11 11 11 11 12 12 12 13 13 13 13 13 13 13 13 13 13 13 13 13 13 13 13 12 12 13 14 14 14 14 15 15 16 16
7 7 7 7 8 8 8 9 10 10 10 10 11 11 11 11 11 11 11 12 12 13 13 14 14 13 13 13 13 14 14 14 13 13 13 14 14 14 14 13 13 13 13 14 14 15 15 16 15
8 8 8 9 9 9 9 10 11 10 10 10 10 11 11 12 12 12 12 12 13 13 14 14 14 14 14 14 14 14 14 14 14 14 14 14 14 14 15 14 14 14 13 13 14 15 15 15 15
9 9 9 9 10 10 10 11 11 11 11 11 11 11 11 12 13 13 13 13 13 14 14 14 15 15 15 15 15 15 15 15 15 14 14 14 14 14 15 14 14 14 14 14 14 14 14 15 15
10 9 9 9 10 11 11 12 12 12 12 12 12 12 12 12 13 13 13 13 14 14 14 14 14 15 15 15 15 15 15 15 15 15 14 15 14 14 14 14 14 14 15 14 14 14 15 15 16
10 10 10 10 11 11 12 12 12 12 12 12 12 12 12 12 13 13 13 14 14 14 14 14 15 15 16 16 16 16 15 16 15 14 14 14 15 15 15 16 15 14 14 14 14 15 16 17 17
10 11 11 11 11 12 12 13 13 13 13 12 12 12 13 13 12 13 13 14 14 14 14 14 15 15 16 16 16 16 16 15 14 14 14 15 15 15 15 15 14 14 14 15 15 15 16 17 17
11 11 12 12 11 11 12 13 13 13 13 12 12 12 12 13 13 13 13 14 14 14 15 15 15 16 16 16 16 15 14 14 14 14 14 15 15 15 15 15 15 15 16 16 16 16 16 16 17
13 13 13 12 13 13 12 13 12 13 13 12 13 13 13 14 14 14 14 15 15 15 15 15 15 16 15 15 15 15 15 15 15 15 15 16 16 16 16 16 16 17 17 18 18 17 17 17 17
13 13 14 14 14 14 13 13 12 13 12 13 13 14 14 15 15 15 15 16 16 16 16 15 15 15 15 15 15 16 16 16 16 16 17 17 17 17 17 18 18 18 18 19 19 18 18 19 19
13 13 14 14 14 14 14 14 13 12 13 14 14 15 15 16 16 17 17 17 17 17 17 17 16 16 16 16 16 17 17 17 17 17 17 18 18 18 18 19 19 20 20 20 20 19 19 20 20
13 14 14 15 16 16 15 15 14 13 14 15 15 16 16 17 17 18 18 18 18 17 17 18 18 17 17 18 18 18 18 18 18 18 18 19 19 20 20 20 20 21 21 20 21 21 20 21 21
14 15 15 16 17 17 17 16 15 14 14 15 15 16 17 18 18 19 19 19 19 19 19 19 19 20 20 20 20 20 20 20 20 20 20 20 20 21 21 22 22 22 21 21 21 21 21 22 22
16 16 16 17 17 17 17 17 16 15 15 16 16 16 17 18 18 18 19 19 20 20 20 20 21 21 21 21 21 22 22 21 21 22 22 22 21 22 22 23 23 23 22 22 22 22 23 23 23
16 17 17 18 19 18 19 19 18 18 17 17 17 17 18 18 18 19 19 20 20 20 20 20 21 21 22 22 23 22 22 23 23 23 23 23 23 23 23 23 24 23 23 22 22 23 23 23 23
17 17 17 18 19 19 20 20 20 19 19 19 18 18 19 19 19 19 20 20 21 21 21 21 21 22 23 23 24 23 24 24 24 24 24 24 25 24 24 24 24 24 23 23 23 23 23 23 23
Wind_Direction
212 211 205 203 203 205 203 203 208 203 204 203 203 207 210 214 215 217 218 223 225 224 229 234 237 233 234 237 240 241 247 244 239 232 228 227 226 228 230 234 236 237 237 240 246 251 256 259 261
215 216 211 210 214 218 211 207 208 209 210 211 212 217 216 217 221 222 223 224 227 230 233 235 236 235 236 238 239 241 248 247 246 241 235 235 235 237 239 240 243 245 245 247 248 254 261 267 270
217 219 218 219 223 226 222 217 222 223 221 218 219 218 216 219 227 231 230 227 235 239 240 241 240 239 239 240 243 247 251 252 249 245 241 244 248 245 241 243 248 249 250 249 252 257 264 271 275
220 225 228 229 230 231 231 229 228 230 227 223 220 219 219 224 235 232 231 235 242 244 248 251 245 242 244 244 245 249 252 252 250 248 246 246 247 250 248 246 249 252 254 252 255 261 263 269 275
224 227 232 234 234 233 232 231 233 235 233 228 229 228 226 234 236 239 237 243 246 249 255 257 252 249 246 245 248 251 254 252 250 251 251 249 249 251 250 246 247 254 256 258 258 257 262 263 264
231 234 237 239 240 238 233 235 235 236 234 233 236 238 235 239 243 246 247 249 249 254 258 261 258 251 243 242 249 254 256 252 249 251 249 248 250 251 251 247 250 256 256 256 259 258 260 259 258
241 241 239 242 244 242 245 243 244 240 236 234 238 244 243 244 248 250 254 257 257 260 264 265 260 249 238 244 252 255 256 253 249 251 250 248 250 250 251 252 255 256 255 257 257 261 262 260 259
249 249 247 249 248 247 251 247 243 242 245 242 242 245 244 248 251 254 257 260 263 262 263 268 257 244 246 250 254 255 255 254 253 251 249 251 254 255 256 258 259 260 262 263 261 261 259 261 258
249 248 248 249 247 246 247 246 242 242 245 246 248 250 249 250 251 252 253 254 256 256 258 261 258 251 250 251 253 252 258 258 253 256 256 256 259 259 260 262 262 262 263 263 259 258 258 259 260
252 253 251 250 250 250 247 244 243 243 242 245 248 248 246 245 245 248 250 250 251 254 257 259 259 259 261 259 256 256 259 258 254 257 259 260 262 262 262 264 264 263 262 261 260 257 258 259 258
258 260 258 254 253 250 246 243 244 245 244 246 247 246 243 243 246 250 253 255 254 256 261 259 258 259 263 261 258 258 259 257 259 258 258 261 261 258 260 262 263 261 260 261 263 262 262 261 261
260 264 263 262 256 249 243 240 240 241 243 245 247 247 246 246 249 253 256 257 256 257 259 261 260 260 261 260 257 258 258 257 260 260 261 264 265 262 261 263 263 262 261 263 266 266 265 263 262
260 262 267 263 253 247 244 240 240 241 243 245 248 248 250 252 253 254 255 255 256 258 258 259 261 261 263 263 263 264 265 264 264 263 262 264 266 265 263 263 263 264 264 263 264 263 265 266 264
259 261 264 257 253 249 247 242 241 243 245 246 249 251 252 252 252 252 255 256 257 260 260 261 264 265 267 266 263 264 265 268 270 270 268 265 265 268 268 265 264 265 264 262 264 266 267 266 266
261 261 259 255 253 252 250 244 245 247 250 251 251 252 255 256 255 256 257 259 259 261 262 262 262 265 267 268 267 266 265 269 271 270 270 267 265 268 268 268 267 267 266 265 265 265 266 267 268
260 258 255 255 253 254 251 249 250 251 254 257 256 255 258 257 257 258 260 262 264 265 264 262 261 262 263 266 269 270 270 269 270 270 270 269 269 269 269 271 271 270 269 268 267 267 266 266 266
262 259 255 253 253 253 253 253 252 253 257 260 260 259 260 262 261 261 263 264 264 264 263 261 260 260 262 266 269 270 270 269 269 269 270 271 273 275 275 275 272 271 269 270 269 269 268 266 266
266 260 257 254 252 252 252 252 254 256 258 258 259 262 262 264 266 266 266 266 265 264 264 263 262 261 262 264 267 269 268 270 271 269 269 272 274 276 276 276 277 275 273 274 274 271 269 268 268
264 261 260 259 257 255 253 253 255 257 259 260 260 261 263 265 267 268 268 268 267 267 265 263 262 262 262 263 264 265 267 268 271 272 271 271 273 276 277 277 279 277 276 276 274 272 270 270 269
264 263 262 261 262 259 256 255 257 257 257 258 258 258 265 268 269 271 270 269 269 269 267 265 265 264 264 264 264 265 267 268 270 272 272 274 275 276 278 278 278 277 277 278 278 275 273 272 271
265 266 266 269 268 264 264 261 260 259 258 256 257 259 265 271 272 273 272 269 269 269 270 268 266 266 267 267 265 265 266 266 269 271 272 272 274 277 278 279 276 277 277 277 279 277 275 272 272
268 267 268 271 271 270 267 266 261 262 258 255 255 259 263 267 269 270 268 269 269 271 271 268 268 268 269 267 264 265 266 267 268 270 271 272 274 276 276 275 275 276 277 279 279 278 276 276 274
268 269 269 270 271 271 269 268 265 260 260 257 258 261 263 265 266 268 269 268 269 271 273 270 269 269 268 265 264 264 266 268 271 271 272 272 274 276 277 276 274 276 278 278 279 276 276 277 276
268 269 270 270 270 270 269 267 263 262 262 261 262 265 266 267 266 267 269 269 271 273 272 272 271 268 267 265 265 265 266 269 273 274 274 274 274 276 278 279 278 278 278 279 281 278 275 275 275
265 266 270 272 271 271 268 264 263 264 262 262 266 268 269 269 270 268 268 270 270 273 272 270 269 267 266 264 264 265 266 267 270 273 273 274 275 276 277 278 278 278 278 277 279 277 277 277 276
268 264 265 268 269 272 268 265 266 266 264 263 266 268 269 269 270 269 269 271 271 272 271 269 268 268 267 264 264 266 266 267 269 271 271 273 274 275 276 275 276 276 277 277 279 276 277 278 278
271 267 266 268 269 269 268 267 267 268 267 266 268 269 270 271 270 270 270 270 271 271 271 270 268 267 266 263 262 264 266 267 270 273 274 274 275 275 276 276 276 276 276 276 279 276 276 276 277
271 271 268 268 269 269 269 268 268 271 270 269 269 270 272 272 272 270 269 268 269 271 271 270 267 265 265 264 264 266 268 270 273 275 274 273 274 275 277 276 275 274 274 274 276 277 276 275 275
271 269 267 266 266 268 270 269 270 271 271 272 272 270 271 272 272 270 268 269 270 271 270 270 268 267 267 268 268 268 270 270 271 274 274 272 273 276 276 276 275 274 273 274 275 277 276 275 274
270 269 268 267 268 268 269 270 271 270 269 270 269 269 269 272 272 269 269 270 271 272 271 271 271 269 269 269 268 269 271 270 271 273 273 272 273 275 276 276 276 275 274 274 275 277 277 276 275
Height
5865 5866 5867 5868 5869 5869 5869 5869 5869 5870 5871 5871 5871 5872 5872 5873 5874 5876 5874 5872 5873 5873 5873 5873 5873 5873 5873 5874 5874 5874 5874 5873 5874 5874 5874 5874 5874 5874 5874 5874 5874 5874 5874 5873 5873 5872 5872 5871 5869
5865 5865 5867 5868 5868 5868 5868 5868 5868 5869 5870 5870 5870 5871 5871 5871 5872 5872 5871 5872 5872 5872 5872 5872 5872 5872 5872 5872 5873 5873 5872 5873 5873 5873 5873 5873 5873 5873 5872 5872 5873 5873 5872 5872 5871 5871 5870 5868 5865
5864 5865 5867 5867 5867 5867 5867 5867 5868 5868 5868 5869 5869 5870 5870 5871 5870 5870 5870 5870 5870 5870 5871 5871 5871 5871 5871 5871 5871 5871 5871 5872 5872 5872 5872 5872 5872 5871 5871 5871 5871 5871 5871 5870 5870 5869 5868 5866 5862
5864 5865 5866 5866 5866 5866 5866 5866 5866 5866 5867 5867 5868 5869 5869 5869 5869 5869 5869 5869 5869 5869 5869 5869 5869 5869 5869 5869 5870 5870 5870 5870 5870 5870 5871 5871 5870 5870 5870 5870 5870 5870 5870 5869 5869 5868 5867 5865 5862
5862 5864 5864 5864 5864 5864 5864 5864 5865 5865 5866 5866 5867 5867 5867 5868 5868 5868 5868 5868 5868 5868 5867 5867 5867 5867 5867 5867 5868 5868 5869 5869 5869 5869 5869 5869 5869 5869 5868 5868 5868 5868 5868 5868 5867 5867 5866 5864 5862
5862 5862 5863 5863 5863 5863 5863 5863 5863 5864 5864 5865 5865 5866 5866 5866 5866 5866 5866 5866 5866 5866 5866 5865 5864 5863 5864 5865 5866 5867 5867 5867 5867 5867 5867 5867 5867 5867 5867 5867 5867 5867 5866 5866 5866 5865 5864 5863 5862
5861 5861 5861 5861 5861 5862 5862 5862 5862 5863 5863 5864 5864 5864 5864 5864 5865 5865 5865 5865 5865 5864 5864 5863 5861 5860 5862 5863 5864 5865 5865 5865 5865 5865 5865 5865 5865 5865 5865 5865 5865 5865 5865 5864 5864 5864 5863 5862 5861
5858 5860 5859 5859 5860 5860 5860 5860 5861 5861 5862 5862 5862 5863 5863 5863 5863 5863 5863 5863 5863 5863 5862 5862 5861 5860 5861 5862 5863 5863 5863 5863 5863 5863 5863 5864 5864 5864 5863 5863 5863 5863 5863 5862 5862 5862 5861 5861 5860
5856 5858 5857 5857 5858 5858 5858 5858 5859 5859 5860 5860 5860 5861 5861 5861 5861 5861 5861 5862 5862 5861 5861 5861 5860 5860 5860 5861 5861 5861 5862 5861 5861 5861 5861 5861 5861 5861 5861 5861 5861 5861 5861 5860 5860 5859 5859 5859 5858
5854 5855 5855 5855 5855 5855 5856 5856 5857 5857 5858 5858 5858 5859 5859 5859 5859 5859 5859 5859 5860 5860 5860 5859 5859 5859 5859 5859 5860 5860 5860 5859 5859 5859 5859 5859 5859 5858 5858 5858 5858 5858 5858 5858 5858 5857 5857 5857 5856
5852 5852 5852 5852 5852 5852 5853 5854 5854 5855 5856 5856 5856 5857 5857 5857 5857 5857 5857 5858 5858 5858 5858 5858 5858 5858 5858 5858 5858 5858 5858 5857 5857 5857 5856 5856 5856 5856 5856 5856 5856 5855 5855 5855 5855 5854 5854 5854 5853
5849 5849 5849 5849 5849 5850 5850 5851 5852 5853 5854 5854 5854 5854 5854 5855 5855 5855 5855 5855 5856 5856 5856 5856 5856 5856 5856 5856 5856 5856 5856 5855 5855 5855 5854 5854 5853 5853 5853 5853 5853 5852 5852 5852 5852 5851 5851 5851 5850
5847 5847 5847 5846 5846 5847 5847 5848 5849 5850 5851 5851 5851 5852 5852 5853 5853 5853 5853 5853 5853 5853 5854 5854 5854 5854 5854 5854 5853 5853 5853 5853 5852 5852 5852 5851 5851 5850 5850 5850 5849 5849 5849 5849 5848 5848 5848 5847 5847
5845 5844 5844 5844 5844 5844 5845 5846 5847 5847 5848 5849 5849 5849 5850 5850 5850 5851 5851 5851 5851 5851 5851 5851 5851 5851 5851 5851 5851 5850 5850 5850 5850 5849 5849 5848 5848 5848 5847 5847 5847 5846 5846 5845 5845 5845 5845 5844 5844
5842 5843 5843 5842 5843 5843 5844 5844 5844 5845 5846 5846 5846 5847 5847 5847 5848 5848 5848 5848 5848 5848 5848 5848 5848 5848 5848 5848 5848 5848 5848 5847 5847 5846 5846 5845 5845 5845 5845 5844 5843 5843 5843 5842 5842 5841 5841 5841 5840
5841 5841 5841 5841 5841 5841 5843 5843 5842 5843 5843 5843 5844 5844 5844 5845 5845 5845 5845 5845 5845 5845 5845 5845 5845 5845 5845 5845 5845 5845 5844 5844 5844 5843 5843 5842 5842 5841 5841 5841 5840 5840 5839 5839 5838 5838 5837 5837 5837
5839 5839 5839 5839 5839 5839 5840 5840 5840 5840 5841 5841 5841 5842 5842 5842 5842 5842 5842 5842 5842 5842 5842 5842 5842 5842 5842 5842 5842 5842 5841 5841 5840 5840 5840 5839 5839 5838 5838 5837 5836 5836 5835 5835 5834 5834 5833 5833 5833
5837 5837 5837 5837 5837 5837 5837 5838 5838 5838 5838 5838 5839 5839 5839 5839 5839 5839 5839 5839 5838 5838 5838 5838 5838 5839 5839 5839 5839 5839 5838 5838 5837 5837 5836 5836 5836 5835 5834 5834 5833 5832 5832 5831 5830 5830 5830 5830 5830
5834 5834 5835 5835 5834 5834 5835 5835 5835 5835 5835 5835 5836 5836 5836 5836 5836 5836 5835 5835 5835 5835 5835 5835 5835 5835 5835 5835 5835 5835 5835 5834 5834 5833 5833 5833 5832 5832 5831 5831 5830 5829 5828 5827 5827 5826 5826 5826 5826
5831 5832 5832 5832 5832 5832 5832 5832 5832 5832 5832 5833 5833 5833 5833 5833 5833 5832 5832 5832 5831 5831 5831 5831 5831 5831 5831 5831 5831 5831 5831 5831 5830 5830 5830 5829 5829 5828 5828 5827 5826 5825 5825 5824 5823 5822 5822 5821 5821
5828 5829 5829 5829 5829 5829 5829 5830 5829 5829 5829 5829 5830 5830 5830 5830 5830 5829 5829 5828 5828 5828 5828 5828 5827 5827 5827 5827 5827 5827 5827 5827 5827 5827 5826 5826 5825 5825 5824 5823 5823 5822 5821 5820 5819 5819 5818 5817 5817
5825 5825 5825 5825 5825 5825 5826 5826 5826 5826 5826 5826 5826 5826 5827 5827 5826 5826 5826 5825 5825 5825 5824 5824 5824 5823 5823 5823 5823 5823 5823 5823 5823 5823 5822 5822 5821 5821 5820 5820 5819 5819 5818 5817 5816 5815 5814 5813 5813
5821 5822 5822 5822 5822 5822 5822 5823 5823 5822 5823 5823 5823 5823 5823 5823 5823 5823 5822 5822 5821 5821 5821 5820 5820 5819 5819 5819 5819 5819 5819 5819 5819 5819 5818 5818 5817 5817 5816 5815 5815 5814 5813 5812 5811 5810 5810 5809 5808
5818 5818 5818 5818 5818 5819 5819 5819 5819 5819 5819 5819 5819 5819 5819 5819 5819 5818 5818 5818 5817 5817 5817 5816 5816 5815 5815 5815 5815 5815 5815 5815 5814 5814 5814 5813 5813 5812 5811 5811 5810 5809 5809 5808 5806 5806 5805 5804 5803
5814 5815 5815 5815 5815 5815 5815 5815 5816 5815 5815 5815 5815 5815 5814 5814 5814 5814 5813 5813 5813 5813 5812 5812 5812 5811 5811 5811 5811 5811 5811 5810 5810 5809 5809 5809 5808 5807 5807 5806 5805 5804 5803 5802 5801 5800 5799 5799 5798
5810 5811 5812 5812 5812 5811 5811 5811 5812 5812 5811 5811 5810 5810 5810 5809 5809 5809 5809 5808 5808 5808 5807 5807 5807 5807 5807 5806 5806 5806 5806 5805 5805 5805 5804 5803 5803 5802 5802 5801 5800 5799 5798 5797 5796 5795 5794 5793 5792
5806 5806 5807 5808 5807 5807 5807 5807 5807 5807 5807 5806 5806 5806 5805 5805 5804 5804 5803 5803 5803 5802 5802 5802 5802 5802 5802 5801 5801 5801 5800 5800 5800 5799 5799 5798 5797 5797 5796 5795 5794 5793 5792 5791 5790 5789 5788 5787 5786
5802 5802 5802 5802 5802 5802 5803 5803 5803 5803 5802 5802 5801 5801 5800 5800 5799 5798 5798 5798 5797 5797 5797 5796 5796 5796 5796 5795 5795 5795 5794 5794 5794 5793 5793 5792 5791 5790 5789 5788 5788 5787 5786 5785 5784 5782 5781 5780 5779
5797 5797 5797 5797 5797 5798 5798 5800 5798 5797 5797 5797 5796 5796 5795 5794 5794 5793 5793 5792 5792 5792 5791 5791 5790 5790 5790 5790 5789 5788 5788 5788 5787 5787 5786 5785 5785 5784 5783 5782 5781 5780 5779 5778 5777 5776 5775 5773 5772
5792 5792 5792 5793 5792 5792 5793 5796 5792 5792 5791 5791 5791 5790 5789 5789 5788 5787 5787 5787 5786 5786 5785 5785 5784 5784 5784 5783 5783 5782 5782 5781 5781 5780 5779 5779 5778 5777 5776 5775 5774 5772 5772 5771 5770 5769 5768 5767 5765